Estación de Petorca
Ultimos registro cada 15 minutos 35
| N° | Estación | Fecha / Hora | Temperatura | Humedad | Lluvia | Velocidad | Dirección | Radiación | Presion |
| 35 | Petorca | 07-05-2026 08:30 | 11,2 | 92,7 | 0 | 0 | 102 | 46,9 | 991,9 |
| 34 | Petorca | 07-05-2026 08:15 | 11,2 | 93,2 | 0 | 0 | 102 | 36,9 | 991,9 |
| 33 | Petorca | 07-05-2026 08:00 | 10,9 | 93,2 | 0 | 0 | 105 | 13,1 | 991,8 |
| 32 | Petorca | 07-05-2026 07:45 | 10,7 | 93,2 | 0 | 0 | 128 | 8,1 | 991,6 |
| 31 | Petorca | 07-05-2026 07:30 | 10,8 | 92,6 | 0 | 0 | 216 | 3,1 | 991,8 |
| 30 | Petorca | 07-05-2026 07:15 | 10,9 | 93,2 | 0 | 0 | 205 | 0,6 | 991,7 |
| 29 | Petorca | 07-05-2026 07:00 | 11 | 93,6 | 0 | 0 | 177 | 0,6 | 991,6 |
| 28 | Petorca | 07-05-2026 06:45 | 11 | 93,5 | 0 | 0 | 174 | 0,6 | 991,3 |
| 27 | Petorca | 07-05-2026 06:30 | 11 | 93,1 | 0 | 0 | 122 | 0,6 | 991,3 |
| 26 | Petorca | 07-05-2026 06:15 | 11,1 | 93 | 0 | 0 | 60 | 0,6 | 991,1 |
| 25 | Petorca | 07-05-2026 06:00 | 11,1 | 93,4 | 0 | 0 | 77 | 0,6 | 990,9 |
| 24 | Petorca | 07-05-2026 05:45 | 11,1 | 93,3 | 0 | 0 | 94 | 0,6 | 991,4 |
| 23 | Petorca | 07-05-2026 05:30 | 11 | 93,3 | 0 | 0 | 194 | 0,6 | 990,9 |
| 22 | Petorca | 07-05-2026 05:15 | 10,9 | 93,8 | 0 | 0 | 220 | 0,6 | 990,6 |
| 21 | Petorca | 07-05-2026 05:00 | 10,9 | 94,4 | 0 | 0 | 195 | 0,6 | 990,7 |
| 20 | Petorca | 07-05-2026 04:45 | 11 | 93,9 | 0 | 0 | 184 | 0,6 | 990,4 |
| 19 | Petorca | 07-05-2026 04:30 | 11,1 | 93,3 | 0 | 0 | 181 | 0,6 | 990,4 |
| 18 | Petorca | 07-05-2026 04:15 | 11,4 | 93 | 0 | 0 | 118 | 0,6 | 990,4 |
| 17 | Petorca | 07-05-2026 04:00 | 11,4 | 92,6 | 0 | 0 | 194 | 0,6 | 990,4 |
| 16 | Petorca | 07-05-2026 03:45 | 11,5 | 92,4 | 0 | 0 | 239 | 0,6 | 990,6 |
| 15 | Petorca | 07-05-2026 03:30 | 11,5 | 92 | 0 | 0,5 | 229 | 0,6 | 990,4 |
| 14 | Petorca | 07-05-2026 03:15 | 11,6 | 91,5 | 0 | 0,5 | 222 | 0,6 | 990,3 |
| 13 | Petorca | 07-05-2026 03:00 | 11,6 | 91,6 | 0 | 0,5 | 136 | 0,6 | 990,3 |
| 12 | Petorca | 07-05-2026 02:45 | 11,4 | 92,6 | 0 | 0 | 142 | 0,6 | 989,9 |
| 11 | Petorca | 07-05-2026 02:30 | 11,7 | 92,1 | 0 | 0 | 248 | 0,6 | 990,1 |
| 10 | Petorca | 07-05-2026 02:15 | 11,8 | 91,8 | 0 | 1,5 | 229 | 0,6 | 990,2 |
| 9 | Petorca | 07-05-2026 02:00 | 11,9 | 92,3 | 0,2 | 1,5 | 233 | 0,6 | 989,9 |
| 8 | Petorca | 07-05-2026 01:45 | 12 | 92,3 | 0 | 1,5 | 227 | 0,6 | 989,7 |
| 7 | Petorca | 07-05-2026 01:30 | 12,1 | 92,6 | 0 | 2 | 229 | 0,6 | 989,6 |
| 6 | Petorca | 07-05-2026 01:15 | 12,2 | 93,2 | 0 | 2 | 212 | 0,6 | 989,4 |
| 5 | Petorca | 07-05-2026 01:00 | 12,6 | 93,6 | 0 | 0 | 253 | 0,6 | 989,6 |
| 4 | Petorca | 07-05-2026 00:45 | 12,8 | 95 | 0 | 0,5 | 230 | 0,6 | 989,7 |
| 3 | Petorca | 07-05-2026 00:30 | 12,4 | 96,3 | 0 | 0 | 198 | 0,6 | 989,5 |
| 2 | Petorca | 07-05-2026 00:15 | 12,9 | 97,3 | 0 | 0 | 159 | 0,6 | 989,8 |
| 1 | Petorca | 07-05-2026 00:00 | 12,7 | 97,3 | 0 | 0 | 281 | 0,6 | 989,6 |